Location: *
(46.3500°N, 10.9000°E)
Time: 22:38:33
(UTC+00:00)

Explorer 7 - Pass Details

Date: 25 April 2021
Orbit: 484 x 677 km, 50.3° (Epoch: 05 May)

Event Time Altitude Azimuth Distance (km) Brightness Sun altitude
Rises 20:57:03 0° 288° (WNW) 2,688 11.2 -22.7°
Reaches altitude 10° 20:59:15 10° 293° (WNW) 1,826 10.3 -22.9°
Maximum altitude 21:03:22 57° 13° (NNE) 680 7.4 -23.3°
Enters shadow 21:04:08 49° 55° (NE) 756 7.4 -23.4°
Drops below altitude 10° 21:07:45 10° 92° (E) 1,946 - -23.8°
Sets 21:10:09 0° 97° (E) 2,883 - -24.0°
